ASA590 KPDX-KLAS

Flight info

Callsign ASA590
Flight time 1h 47m
Altitude 39000
Route CASCD4 PUHTS RUFUS Q13 LOMIA TQILA COKTL4
Aircraft B738/M-SDE2E3FGHIRWXY/LB1

Departure

Time 2026-05-06 15:06
Airport Portland International Airport (KPDX)

Arrival

Time 2026-05-06 16:54
Airport Harry Reid International Airport (KLAS)
Time Latitude Longitude Altitude Speed Heading
2026-05-06 14:53 45.58853 -122.59696 35 ft 0 kts
2026-05-06 14:59 45.58852 -122.59696 35 ft 2 kts
2026-05-06 14:59 45.58836 -122.59700 34 ft 2 kts 10°
2026-05-06 14:59 45.58820 -122.59707 34 ft 2 kts 34°
2026-05-06 14:59 45.58806 -122.59720 34 ft 2 kts 35°
2026-05-06 15:00 45.58794 -122.59735 35 ft 2 kts 61°
2026-05-06 15:00 45.58791 -122.59751 35 ft 1 kts 115°
2026-05-06 15:02 45.58790 -122.59750 35 ft 1 kts 116°
2026-05-06 15:02 45.58780 -122.59722 34 ft 6 kts 117°
2026-05-06 15:02 45.58756 -122.59681 35 ft 10 kts 149°
2026-05-06 15:02 45.58664 -122.59637 34 ft 16 kts 119°
2026-05-06 15:03 45.58622 -122.59534 32 ft 20 kts 120°
2026-05-06 15:03 45.58548 -122.59343 31 ft 26 kts 119°
2026-05-06 15:03 45.58453 -122.59098 29 ft 30 kts 119°
2026-05-06 15:03 45.58348 -122.58830 30 ft 26 kts 120°
2026-05-06 15:04 45.58265 -122.58616 31 ft 21 kts 119°
2026-05-06 15:04 45.58208 -122.58471 31 ft 15 kts 119°
2026-05-06 15:04 45.58155 -122.58369 29 ft 2 kts 155°
2026-05-06 15:04 45.58138 -122.58363 29 ft 3 kts 172°
2026-05-06 15:05 45.58104 -122.58373 29 ft 8 kts 205°
2026-05-06 15:05 45.58069 -122.58423 31 ft 5 kts 257°
2026-05-06 15:05 45.58083 -122.58476 31 ft 11 kts 297°
2026-05-06 15:05 45.58243 -122.58895 32 ft 87 kts 299°
2026-05-06 15:06 45.58660 -122.59939 42 ft 152 kts 301°
2026-05-06 15:06 45.59235 -122.61407 422 ft 180 kts 299°
2026-05-06 15:06 45.59842 -122.63031 1226 ft 187 kts 297°
2026-05-06 15:06 45.60464 -122.64772 2055 ft 206 kts 296°
2026-05-06 15:07 45.61123 -122.66603 2885 ft 208 kts 295°
2026-05-06 15:07 45.61783 -122.68437 3606 ft 205 kts 296°
2026-05-06 15:07 45.62430 -122.70250 4176 ft 217 kts 296°
2026-05-06 15:07 45.63237 -122.72304 4289 ft 252 kts 307°
2026-05-06 15:08 45.64347 -122.74298 5010 ft 259 kts 306°
2026-05-06 15:08 45.65355 -122.76411 5846 ft 261 kts 303°
2026-05-06 15:08 45.66317 -122.78629 6698 ft 263 kts 302°
2026-05-06 15:08 45.67045 -122.81039 7412 ft 269 kts 279°
2026-05-06 15:09 45.66956 -122.83722 8198 ft 274 kts 258°
2026-05-06 15:09 45.66420 -122.86365 9001 ft 278 kts 255°
2026-05-06 15:09 45.65745 -122.88977 9760 ft 284 kts 242°
2026-05-06 15:09 45.64417 -122.91091 10499 ft 292 kts 217°
2026-05-06 15:10 45.62529 -122.92255 11019 ft 309 kts 192°
2026-05-06 15:10 45.60301 -122.92066 11192 ft 337 kts 167°
2026-05-06 15:10 45.58003 -122.91081 11568 ft 351 kts 164°
2026-05-06 15:10 45.55649 -122.90009 12196 ft 356 kts 161°
2026-05-06 15:11 45.53478 -122.88285 12903 ft 362 kts 140°
2026-05-06 15:11 45.51700 -122.85721 13683 ft 365 kts 134°
2026-05-06 15:11 45.49986 -122.83026 14354 ft 369 kts 133°
2026-05-06 15:11 45.48267 -122.80280 14984 ft 374 kts 133°
2026-05-06 15:12 45.46523 -122.77499 15632 ft 378 kts 133°
2026-05-06 15:12 45.44755 -122.74698 16309 ft 382 kts 133°
2026-05-06 15:12 45.42989 -122.71922 16980 ft 386 kts 133°
2026-05-06 15:12 45.41172 -122.69079 17631 ft 390 kts 133°
2026-05-06 15:13 45.39330 -122.66211 18274 ft 395 kts 134°
2026-05-06 15:13 45.37462 -122.63308 18859 ft 399 kts 134°
2026-05-06 15:13 45.35577 -122.60384 19422 ft 403 kts 134°
2026-05-06 15:13 45.33670 -122.57430 19979 ft 407 kts 134°
2026-05-06 15:14 45.31748 -122.54457 20537 ft 411 kts 134°
2026-05-06 15:14 45.29798 -122.51444 21100 ft 415 kts 134°
2026-05-06 15:14 45.27836 -122.48416 21626 ft 418 kts 134°
2026-05-06 15:14 45.25853 -122.45357 22160 ft 422 kts 134°
2026-05-06 15:15 45.23850 -122.42293 22667 ft 426 kts 136°
2026-05-06 15:15 45.21564 -122.39583 23154 ft 428 kts 148°
2026-05-06 15:15 45.18997 -122.37540 23681 ft 429 kts 156°
2026-05-06 15:15 45.16283 -122.35728 24115 ft 432 kts 157°
2026-05-06 15:16 45.13547 -122.33931 24536 ft 435 kts 157°
2026-05-06 15:16 45.10788 -122.32117 24950 ft 438 kts 157°
2026-05-06 15:16 45.08013 -122.30281 25359 ft 442 kts 157°
2026-05-06 15:16 45.05224 -122.28424 25769 ft 445 kts 157°
2026-05-06 15:17 45.02410 -122.26540 26164 ft 448 kts 156°
2026-05-06 15:17 44.99607 -122.24658 26543 ft 451 kts 156°
2026-05-06 15:17 44.96765 -122.22747 26935 ft 454 kts 156°
2026-05-06 15:17 44.93904 -122.20823 27296 ft 457 kts 156°
2026-05-06 15:18 44.91029 -122.18892 27670 ft 459 kts 156°
2026-05-06 15:18 44.88123 -122.16942 28002 ft 463 kts 156°
2026-05-06 15:18 44.85220 -122.14997 28361 ft 465 kts 156°
2026-05-06 15:18 44.82261 -122.13018 28718 ft 468 kts 156°
2026-05-06 15:19 44.79303 -122.11041 29038 ft 471 kts 156°
2026-05-06 15:19 44.76336 -122.09060 29339 ft 474 kts 156°
2026-05-06 15:19 44.73348 -122.07068 29685 ft 476 kts 156°
2026-05-06 15:19 44.70344 -122.05067 30004 ft 479 kts 156°
2026-05-06 15:20 44.67325 -122.03059 30287 ft 482 kts 156°
2026-05-06 15:20 44.64288 -122.01041 30559 ft 484 kts 156°
2026-05-06 15:20 44.61241 -121.99019 30876 ft 485 kts 156°
2026-05-06 15:20 44.58190 -121.96996 31120 ft 486 kts 156°
2026-05-06 15:21 44.55122 -121.94965 31381 ft 488 kts 156°
2026-05-06 15:21 44.52084 -121.92956 31646 ft 490 kts 156°
2026-05-06 15:21 44.48993 -121.90915 31943 ft 490 kts 156°
2026-05-06 15:21 44.45914 -121.88882 32350 ft 488 kts 156°
2026-05-06 15:22 44.42847 -121.86861 32771 ft 486 kts 156°
2026-05-06 15:22 44.39795 -121.84851 33155 ft 484 kts 156°
2026-05-06 15:22 44.36744 -121.82845 33480 ft 484 kts 156°
2026-05-06 15:22 44.33702 -121.80847 33815 ft 483 kts 156°
2026-05-06 15:23 44.30657 -121.78850 34141 ft 483 kts 156°
2026-05-06 15:23 44.27614 -121.76857 34440 ft 482 kts 156°
2026-05-06 15:23 44.24580 -121.74871 34721 ft 481 kts 156°
2026-05-06 15:23 44.21548 -121.72890 34967 ft 481 kts 156°
2026-05-06 15:24 44.18514 -121.70909 35205 ft 482 kts 156°
2026-05-06 15:24 44.15478 -121.68929 35476 ft 481 kts 156°
2026-05-06 15:24 44.12446 -121.66953 35771 ft 480 kts 156°
2026-05-06 15:24 44.09424 -121.64987 36038 ft 480 kts 157°
2026-05-06 15:25 44.06436 -121.63045 36260 ft 480 kts 157°
2026-05-06 15:25 44.03408 -121.61079 36505 ft 480 kts 157°
2026-05-06 15:25 44.00384 -121.59118 36764 ft 479 kts 157°
2026-05-06 15:25 43.97321 -121.57134 37006 ft 479 kts 157°
2026-05-06 15:26 43.94297 -121.55178 37242 ft 479 kts 157°
2026-05-06 15:26 43.91319 -121.53253 37483 ft 478 kts 157°
2026-05-06 15:26 43.88301 -121.51304 37715 ft 478 kts 157°
2026-05-06 15:26 43.85285 -121.49360 37941 ft 478 kts 157°
2026-05-06 15:27 43.82272 -121.47419 38151 ft 478 kts 157°
2026-05-06 15:27 43.79249 -121.45474 38359 ft 478 kts 157°
2026-05-06 15:27 43.76230 -121.43534 38579 ft 478 kts 157°
2026-05-06 15:27 43.73219 -121.41601 38780 ft 477 kts 157°
2026-05-06 15:28 43.70202 -121.39666 38963 ft 477 kts 157°
2026-05-06 15:28 43.67191 -121.37737 39077 ft 476 kts 157°
2026-05-06 15:28 43.64185 -121.35814 39075 ft 477 kts 156°
2026-05-06 15:29 43.58154 -121.31961 39085 ft 478 kts 156°
2026-05-06 15:29 43.52115 -121.28112 39083 ft 478 kts 156°
2026-05-06 15:30 43.46100 -121.24287 39078 ft 479 kts 156°
2026-05-06 15:30 43.40041 -121.20442 39089 ft 479 kts 156°
2026-05-06 15:31 43.33979 -121.16604 39092 ft 479 kts 156°
2026-05-06 15:31 43.27916 -121.12774 39087 ft 479 kts 156°
2026-05-06 15:32 43.18854 -121.07065 39087 ft 479 kts 156°
2026-05-06 15:32 43.12792 -121.03256 39104 ft 479 kts 156°
2026-05-06 15:33 43.06732 -120.99457 39100 ft 479 kts 156°
2026-05-06 15:33 43.00671 -120.95665 39102 ft 479 kts 156°
2026-05-06 15:34 42.94604 -120.91879 39103 ft 479 kts 156°
2026-05-06 15:34 42.88577 -120.88125 39111 ft 479 kts 156°
2026-05-06 15:35 42.82514 -120.84357 39108 ft 479 kts 155°
2026-05-06 15:35 42.76425 -120.80581 39115 ft 479 kts 155°
2026-05-06 15:36 42.70356 -120.76825 39117 ft 480 kts 155°
2026-05-06 15:36 42.64279 -120.73073 39113 ft 480 kts 155°
2026-05-06 15:37 42.58191 -120.69321 39119 ft 480 kts 155°
2026-05-06 15:37 42.52142 -120.65603 39130 ft 480 kts 155°
2026-05-06 15:38 42.46056 -120.61869 39136 ft 480 kts 155°
2026-05-06 15:38 42.39975 -120.58146 39166 ft 480 kts 155°
2026-05-06 15:39 42.33879 -120.54422 39188 ft 480 kts 155°
2026-05-06 15:39 42.27781 -120.50705 39218 ft 481 kts 155°
2026-05-06 15:40 42.21720 -120.47018 39228 ft 481 kts 155°
2026-05-06 15:40 42.15616 -120.43313 39228 ft 481 kts 155°
2026-05-06 15:41 42.09510 -120.39615 39232 ft 481 kts 154°
2026-05-06 15:41 42.03408 -120.35926 39215 ft 481 kts 154°
2026-05-06 15:42 41.97306 -120.32246 39198 ft 481 kts 154°
2026-05-06 15:42 41.91193 -120.28567 39182 ft 481 kts 154°
2026-05-06 15:43 41.85075 -120.24892 39151 ft 481 kts 154°
2026-05-06 15:43 41.78994 -120.21247 39152 ft 481 kts 154°
2026-05-06 15:44 41.72860 -120.17578 39128 ft 482 kts 154°
2026-05-06 15:44 41.66730 -120.13919 39136 ft 482 kts 154°
2026-05-06 15:45 41.60644 -120.10294 39129 ft 482 kts 154°
2026-05-06 15:45 41.54507 -120.06645 39126 ft 482 kts 154°
2026-05-06 15:46 41.48373 -120.03005 39118 ft 482 kts 154°
2026-05-06 15:46 41.42205 -119.99439 39112 ft 483 kts 159°
2026-05-06 15:47 41.35805 -119.96666 39114 ft 484 kts 162°
2026-05-06 15:47 41.29387 -119.94113 39119 ft 484 kts 162°
2026-05-06 15:48 41.22925 -119.91504 39104 ft 485 kts 161°
2026-05-06 15:48 41.16483 -119.88849 39114 ft 485 kts 161°
2026-05-06 15:49 41.11121 -119.86625 39107 ft 485 kts 161°
2026-05-06 15:49 41.04680 -119.83957 39113 ft 485 kts 161°
2026-05-06 15:50 40.98234 -119.81295 39112 ft 485 kts 161°
2026-05-06 15:50 40.91788 -119.78640 39110 ft 485 kts 161°
2026-05-06 15:51 40.85333 -119.75987 39100 ft 486 kts 161°
2026-05-06 15:51 40.78878 -119.73340 39097 ft 486 kts 161°
2026-05-06 15:52 40.72412 -119.70694 39091 ft 486 kts 161°
2026-05-06 15:52 40.65988 -119.68070 39087 ft 486 kts 161°
2026-05-06 15:53 40.59526 -119.65436 39087 ft 485 kts 161°
2026-05-06 15:53 40.53071 -119.62811 39085 ft 485 kts 161°
2026-05-06 15:54 40.46621 -119.60192 39083 ft 485 kts 161°
2026-05-06 15:54 40.40158 -119.57573 39086 ft 486 kts 161°
2026-05-06 15:55 40.33694 -119.54960 39089 ft 485 kts 161°
2026-05-06 15:55 40.27234 -119.52353 39074 ft 486 kts 161°
2026-05-06 15:56 40.20810 -119.49765 39083 ft 486 kts 161°
2026-05-06 15:56 40.14345 -119.47166 39080 ft 486 kts 160°
2026-05-06 15:57 40.07865 -119.44567 39084 ft 486 kts 161°
2026-05-06 15:57 40.01382 -119.41972 39073 ft 487 kts 160°
2026-05-06 15:58 39.94908 -119.39386 39074 ft 487 kts 160°
2026-05-06 15:58 39.88472 -119.36819 39084 ft 487 kts 160°
2026-05-06 15:59 39.81991 -119.34240 39080 ft 487 kts 160°
2026-05-06 15:59 39.75511 -119.31666 39071 ft 486 kts 160°
2026-05-06 16:00 39.69040 -119.29101 39077 ft 486 kts 160°
2026-05-06 16:00 39.62568 -119.26541 39074 ft 485 kts 160°
2026-05-06 16:01 39.56100 -119.23986 39073 ft 485 kts 160°
2026-05-06 16:01 39.49643 -119.21442 39064 ft 485 kts 160°
2026-05-06 16:02 39.43178 -119.18899 39069 ft 484 kts 160°
2026-05-06 16:02 39.36766 -119.16381 39079 ft 484 kts 160°
2026-05-06 16:03 39.30366 -119.13872 39085 ft 483 kts 160°
2026-05-06 16:03 39.23974 -119.11173 39085 ft 479 kts 152°
2026-05-06 16:04 39.18373 -119.06731 39091 ft 467 kts 134°
2026-05-06 16:04 39.13544 -119.01239 39080 ft 466 kts 133°
2026-05-06 16:05 39.08682 -118.95661 39088 ft 469 kts 133°
2026-05-06 16:05 39.03761 -118.90090 39097 ft 472 kts 133°
2026-05-06 16:06 38.98796 -118.84521 39084 ft 474 kts 134°
2026-05-06 16:06 38.93809 -118.78952 39080 ft 474 kts 134°
2026-05-06 16:07 38.88828 -118.73399 39070 ft 473 kts 133°
2026-05-06 16:07 38.83898 -118.67911 39104 ft 471 kts 133°
2026-05-06 16:08 38.78918 -118.62376 39124 ft 470 kts 133°
2026-05-06 16:08 38.74012 -118.56934 39159 ft 468 kts 133°
2026-05-06 16:09 38.69087 -118.51481 39168 ft 467 kts 133°
2026-05-06 16:09 38.64169 -118.46044 39177 ft 466 kts 133°
2026-05-06 16:10 38.59267 -118.40637 39152 ft 464 kts 133°
2026-05-06 16:10 38.54381 -118.35257 39153 ft 463 kts 133°
2026-05-06 16:11 38.49493 -118.29883 39127 ft 464 kts 133°
2026-05-06 16:11 38.44596 -118.24510 39109 ft 465 kts 133°
2026-05-06 16:12 38.39682 -118.19129 39060 ft 466 kts 133°
2026-05-06 16:12 38.34753 -118.13743 39064 ft 467 kts 133°
2026-05-06 16:13 38.32270 -118.11031 38822 ft 471 kts 133°
2026-05-06 16:13 38.29813 -118.08352 38566 ft 469 kts 133°
2026-05-06 16:13 38.27312 -118.05630 38286 ft 466 kts 133°
2026-05-06 16:13 38.24845 -118.02947 38025 ft 466 kts 133°
2026-05-06 16:14 38.22409 -118.00299 37759 ft 466 kts 133°
2026-05-06 16:14 38.19942 -117.97618 37494 ft 466 kts 133°
2026-05-06 16:14 38.17473 -117.94938 37233 ft 466 kts 133°
2026-05-06 16:14 38.15010 -117.92267 36986 ft 466 kts 133°
2026-05-06 16:15 38.12539 -117.89589 36736 ft 467 kts 133°
2026-05-06 16:15 38.10060 -117.86905 36483 ft 468 kts 133°
2026-05-06 16:15 38.07582 -117.84225 36234 ft 468 kts 133°
2026-05-06 16:15 38.05099 -117.81542 35995 ft 469 kts 133°
2026-05-06 16:16 38.02612 -117.78858 35756 ft 470 kts 133°
2026-05-06 16:16 38.00113 -117.76163 35509 ft 471 kts 133°
2026-05-06 16:16 37.97618 -117.73476 35273 ft 471 kts 133°
2026-05-06 16:16 37.95109 -117.70775 35044 ft 472 kts 133°
2026-05-06 16:17 37.92604 -117.68081 34802 ft 473 kts 133°
2026-05-06 16:17 37.90096 -117.65387 34574 ft 473 kts 133°
2026-05-06 16:17 37.87583 -117.62690 34339 ft 473 kts 133°
2026-05-06 16:17 37.85072 -117.59998 34122 ft 473 kts 133°
2026-05-06 16:18 37.82589 -117.57339 33864 ft 473 kts 133°
2026-05-06 16:18 37.80043 -117.54613 33600 ft 473 kts 133°
2026-05-06 16:18 37.77532 -117.51928 33336 ft 472 kts 133°
2026-05-06 16:18 37.75060 -117.49288 33093 ft 470 kts 133°
2026-05-06 16:19 37.72561 -117.46620 32833 ft 469 kts 133°
2026-05-06 16:19 37.70077 -117.43973 32570 ft 465 kts 133°
2026-05-06 16:19 37.67612 -117.41349 32311 ft 460 kts 133°
2026-05-06 16:19 37.65186 -117.38768 32067 ft 455 kts 133°
2026-05-06 16:20 37.62770 -117.36198 31827 ft 454 kts 133°
2026-05-06 16:20 37.60360 -117.33633 31573 ft 453 kts 133°
2026-05-06 16:20 37.57950 -117.31072 31330 ft 452 kts 133°
2026-05-06 16:20 37.55554 -117.28529 31104 ft 450 kts 133°
2026-05-06 16:21 37.53160 -117.25990 30865 ft 449 kts 133°
2026-05-06 16:21 37.50766 -117.23453 30616 ft 448 kts 133°
2026-05-06 16:21 37.48384 -117.20933 30381 ft 446 kts 133°
2026-05-06 16:21 37.45949 -117.18504 30148 ft 448 kts 137°
2026-05-06 16:22 37.43393 -117.16256 29875 ft 447 kts 140°
2026-05-06 16:22 37.40809 -117.14087 29588 ft 446 kts 140°
2026-05-06 16:22 37.38237 -117.11920 29314 ft 443 kts 140°
2026-05-06 16:22 37.35698 -117.09737 29060 ft 441 kts 139°
2026-05-06 16:23 37.33183 -117.07550 28782 ft 438 kts 139°
2026-05-06 16:23 37.30681 -117.05371 28514 ft 436 kts 139°
2026-05-06 16:23 37.28217 -117.03232 28252 ft 434 kts 140°
2026-05-06 16:23 37.25737 -117.01084 28000 ft 432 kts 140°
2026-05-06 16:24 37.23264 -116.98944 27736 ft 430 kts 140°
2026-05-06 16:24 37.20807 -116.96818 27475 ft 428 kts 140°
2026-05-06 16:24 37.18358 -116.94701 27216 ft 426 kts 140°
2026-05-06 16:24 37.15920 -116.92594 26975 ft 424 kts 140°
2026-05-06 16:25 37.13490 -116.90496 26723 ft 422 kts 140°
2026-05-06 16:25 37.11078 -116.88416 26467 ft 421 kts 141°
2026-05-06 16:25 37.08666 -116.86338 26214 ft 419 kts 141°
2026-05-06 16:25 37.06300 -116.84303 25989 ft 417 kts 141°
2026-05-06 16:26 37.03909 -116.82247 25747 ft 416 kts 141°
2026-05-06 16:26 37.01533 -116.80206 25501 ft 414 kts 141°
2026-05-06 16:26 36.99161 -116.78170 25257 ft 413 kts 141°
2026-05-06 16:26 36.96801 -116.76144 25029 ft 411 kts 142°
2026-05-06 16:27 36.94447 -116.74126 24790 ft 409 kts 142°
2026-05-06 16:27 36.92102 -116.72115 24548 ft 407 kts 142°
2026-05-06 16:27 36.89764 -116.70113 24316 ft 406 kts 142°
2026-05-06 16:27 36.87443 -116.68127 24098 ft 404 kts 142°
2026-05-06 16:28 36.85126 -116.66145 23875 ft 402 kts 142°
2026-05-06 16:28 36.82820 -116.64174 23642 ft 401 kts 143°
2026-05-06 16:28 36.80520 -116.62211 23376 ft 399 kts 143°
2026-05-06 16:28 36.78229 -116.60256 23109 ft 397 kts 143°
2026-05-06 16:29 36.75953 -116.58315 22839 ft 395 kts 143°
2026-05-06 16:29 36.73682 -116.56380 22567 ft 393 kts 143°
2026-05-06 16:29 36.71425 -116.54458 22301 ft 392 kts 143°
2026-05-06 16:29 36.69172 -116.52540 22056 ft 390 kts 143°
2026-05-06 16:30 36.66937 -116.50641 21789 ft 389 kts 143°
2026-05-06 16:30 36.66211 -116.50023 21704 ft 388 kts 143°
2026-05-06 16:30 36.62928 -116.46270 21278 ft 381 kts 128°
2026-05-06 16:30 36.61781 -116.44619 21119 ft 379 kts 128°
2026-05-06 16:31 36.60073 -116.42122 21054 ft 379 kts 128°
2026-05-06 16:31 36.57804 -116.38827 21028 ft 377 kts 128°
2026-05-06 16:31 36.56085 -116.36362 21021 ft 378 kts 128°
2026-05-06 16:31 36.54915 -116.34697 21030 ft 378 kts 128°
2026-05-06 16:32 36.53177 -116.32235 21022 ft 378 kts 129°
2026-05-06 16:32 36.51467 -116.29821 21017 ft 377 kts 129°
2026-05-06 16:32 36.49730 -116.27373 21020 ft 377 kts 129°
2026-05-06 16:32 36.47997 -116.24932 21032 ft 376 kts 129°
2026-05-06 16:33 36.46267 -116.22498 21028 ft 376 kts 129°
2026-05-06 16:33 36.44533 -116.20060 20906 ft 379 kts 129°
2026-05-06 16:33 36.42784 -116.17603 20644 ft 377 kts 129°
2026-05-06 16:34 36.39336 -116.12768 20158 ft 372 kts 129°
2026-05-06 16:34 36.37623 -116.10367 19919 ft 371 kts 129°
2026-05-06 16:34 36.35913 -116.07970 19677 ft 370 kts 129°
2026-05-06 16:34 36.34205 -116.05578 19452 ft 370 kts 129°
2026-05-06 16:35 36.32499 -116.03192 19209 ft 369 kts 129°
2026-05-06 16:35 36.30817 -116.00838 18982 ft 368 kts 129°
2026-05-06 16:35 36.29120 -115.98465 18744 ft 366 kts 129°
2026-05-06 16:35 36.27445 -115.96125 18517 ft 360 kts 129°
2026-05-06 16:36 36.25795 -115.93825 18272 ft 352 kts 129°
2026-05-06 16:36 36.24214 -115.91543 17997 ft 345 kts 127°
2026-05-06 16:36 36.22742 -115.89226 17727 ft 339 kts 125°
2026-05-06 16:36 36.21317 -115.86926 17475 ft 333 kts 125°
2026-05-06 16:37 36.19934 -115.84696 17218 ft 328 kts 126°
2026-05-06 16:37 36.18549 -115.82480 16955 ft 323 kts 126°
2026-05-06 16:37 36.17175 -115.80297 16694 ft 320 kts 126°
2026-05-06 16:37 36.15804 -115.78128 16448 ft 319 kts 126°
2026-05-06 16:38 36.14435 -115.75964 16200 ft 318 kts 125°
2026-05-06 16:38 36.13330 -115.73617 15939 ft 314 kts 110°
2026-05-06 16:38 36.12557 -115.71100 15707 ft 313 kts 108°
2026-05-06 16:38 36.11810 -115.68575 15464 ft 312 kts 108°
2026-05-06 16:39 36.11060 -115.66049 15216 ft 312 kts 109°
2026-05-06 16:39 36.10307 -115.63542 15021 ft 311 kts 109°
2026-05-06 16:39 36.09546 -115.61038 14779 ft 312 kts 109°
2026-05-06 16:39 36.08774 -115.58513 14508 ft 312 kts 109°
2026-05-06 16:40 36.08003 -115.56006 14217 ft 310 kts 109°
2026-05-06 16:40 36.07248 -115.53557 13935 ft 308 kts 109°
2026-05-06 16:40 36.06486 -115.51093 13634 ft 306 kts 110°
2026-05-06 16:40 36.05730 -115.48647 13327 ft 304 kts 109°
2026-05-06 16:41 36.04975 -115.46207 13037 ft 303 kts 109°
2026-05-06 16:41 36.04219 -115.43773 12729 ft 301 kts 109°
2026-05-06 16:41 36.03473 -115.41367 12443 ft 299 kts 110°
2026-05-06 16:41 36.02733 -115.38986 12174 ft 296 kts 109°
2026-05-06 16:42 36.01997 -115.36617 11898 ft 294 kts 109°
2026-05-06 16:42 36.01477 -115.34191 11613 ft 291 kts 94°
2026-05-06 16:42 36.01350 -115.31706 11353 ft 289 kts 91°
2026-05-06 16:42 36.01261 -115.29260 11091 ft 289 kts 91°
2026-05-06 16:43 36.01165 -115.26747 10835 ft 289 kts 91°
2026-05-06 16:43 36.01060 -115.24263 10557 ft 289 kts 91°
2026-05-06 16:43 36.00947 -115.21795 10288 ft 287 kts 92°
2026-05-06 16:43 36.00830 -115.19343 10025 ft 285 kts 92°
2026-05-06 16:44 36.00711 -115.16906 9725 ft 283 kts 92°
2026-05-06 16:44 36.00590 -115.14485 9451 ft 282 kts 92°
2026-05-06 16:44 36.00468 -115.12081 9172 ft 280 kts 92°
2026-05-06 16:44 36.00348 -115.09710 8909 ft 278 kts 92°
2026-05-06 16:45 36.00227 -115.07335 8693 ft 273 kts 92°
2026-05-06 16:45 36.00110 -115.05053 8650 ft 258 kts 92°
2026-05-06 16:45 35.99998 -115.02896 8533 ft 245 kts 92°
2026-05-06 16:45 35.99893 -115.00853 8439 ft 230 kts 92°
2026-05-06 16:46 35.99796 -114.98935 8287 ft 218 kts 92°
2026-05-06 16:46 35.99704 -114.97106 8120 ft 209 kts 93°
2026-05-06 16:46 35.99612 -114.95340 8022 ft 206 kts 93°
2026-05-06 16:46 35.99510 -114.93561 7988 ft 208 kts 94°
2026-05-06 16:47 35.99404 -114.91792 7984 ft 205 kts 94°
2026-05-06 16:47 35.99292 -114.90035 7890 ft 207 kts 94°
2026-05-06 16:47 35.99350 -114.88237 7559 ft 212 kts 71°
2026-05-06 16:47 36.00175 -114.86772 7259 ft 210 kts 36°
2026-05-06 16:48 36.01524 -114.86190 6968 ft 207 kts
2026-05-06 16:48 36.02933 -114.86310 6710 ft 206 kts 353°
2026-05-06 16:48 36.04339 -114.86633 6400 ft 206 kts 339°
2026-05-06 16:48 36.05610 -114.87478 5982 ft 209 kts 323°
2026-05-06 16:49 36.06679 -114.88674 5740 ft 205 kts 309°
2026-05-06 16:49 36.07434 -114.90138 5452 ft 202 kts 291°
2026-05-06 16:49 36.07735 -114.91822 5141 ft 200 kts 271°
2026-05-06 16:49 36.07714 -114.93515 4992 ft 192 kts 266°
2026-05-06 16:50 36.07628 -114.95174 4662 ft 195 kts 264°
2026-05-06 16:50 36.07515 -114.96799 4421 ft 188 kts 263°
2026-05-06 16:50 36.07397 -114.98383 4141 ft 181 kts 264°
2026-05-06 16:50 36.07318 -114.99941 3730 ft 184 kts 266°
2026-05-06 16:51 36.07300 -115.01499 3502 ft 176 kts 269°
2026-05-06 16:51 36.07333 -115.02958 3306 ft 165 kts 271°
2026-05-06 16:51 36.07366 -115.04340 3065 ft 157 kts 269°
2026-05-06 16:51 36.07361 -115.05598 3002 ft 137 kts 268°
2026-05-06 16:52 36.07345 -115.06745 2717 ft 134 kts 270°
2026-05-06 16:52 36.07351 -115.07939 2583 ft 142 kts 270°
2026-05-06 16:52 36.07360 -115.09192 2480 ft 149 kts 270°
2026-05-06 16:52 36.07357 -115.10470 2368 ft 148 kts 271°
2026-05-06 16:53 36.07358 -115.11736 2180 ft 145 kts 271°
2026-05-06 16:53 36.07366 -115.12950 2075 ft 134 kts 271°
2026-05-06 16:53 36.07366 -115.13963 2100 ft 99 kts 270°
2026-05-06 16:53 36.07365 -115.14592 2120 ft 56 kts 270°
2026-05-06 16:54 36.07366 -115.15026 2129 ft 46 kts 270°
2026-05-06 16:54 36.07389 -115.15316 2138 ft 27 kts 283°
2026-05-06 16:54 36.07451 -115.15471 2146 ft 15 kts 300°
2026-05-06 16:54 36.07471 -115.15512 2147 ft 0 kts 301°
2026-05-06 16:57 36.07476 -115.15523 2148 ft 3 kts 301°
2026-05-06 16:57 36.07487 -115.15545 2152 ft 3 kts 302°
2026-05-06 16:57 36.07500 -115.15569 2151 ft 3 kts 303°
2026-05-06 16:58 36.07514 -115.15592 2153 ft 3 kts 311°
2026-05-06 16:58 36.07534 -115.15619 2159 ft 6 kts 314°
2026-05-06 16:58 36.07571 -115.15666 2157 ft 10 kts 314°
2026-05-06 16:58 36.07637 -115.15747 2155 ft 17 kts 315°
2026-05-06 16:59 36.07757 -115.15828 2161 ft 21 kts 356°
2026-05-06 16:59 36.07804 -115.15781 2162 ft 8 kts 72°
2026-05-06 16:59 36.07805 -115.15687 2162 ft 16 kts 92°
2026-05-06 16:59 36.07803 -115.15514 2160 ft 24 kts 89°
2026-05-06 17:00 36.07804 -115.15288 2155 ft 29 kts 90°
2026-05-06 17:00 36.07800 -115.15052 2143 ft 25 kts 95°
2026-05-06 17:00 36.07784 -115.14825 2134 ft 29 kts 95°
2026-05-06 17:00 36.07768 -115.14578 2123 ft 26 kts 95°
2026-05-06 17:01 36.07755 -115.14386 2117 ft 19 kts 94°
2026-05-06 17:01 36.07753 -115.14244 2110 ft 15 kts 88°
2026-05-06 17:01 36.07768 -115.14160 2106 ft 3 kts 37°
2026-05-06 17:01 36.07778 -115.14157 2107 ft 0 kts
2026-05-06 17:02 36.07778 -115.14158 2109 ft 0 kts
2026-05-06 17:02 36.07785 -115.14158 2106 ft 5 kts 358°
2026-05-06 17:03 36.07841 -115.14160 2106 ft 11 kts 358°
2026-05-06 17:03 36.07932 -115.14163 2104 ft 15 kts
2026-05-06 17:03 36.08058 -115.14160 2101 ft 21 kts
2026-05-06 17:03 36.08225 -115.14161 2094 ft 25 kts 359°
2026-05-06 17:04 36.08353 -115.14082 2088 ft 18 kts 45°
2026-05-06 17:04 36.08419 -115.13943 2082 ft 20 kts 94°
2026-05-06 17:04 36.08422 -115.13801 2079 ft 7 kts 55°
2026-05-06 17:04 36.08457 -115.13788 2075 ft 5 kts 343°
2026-05-06 17:05 36.08497 -115.13796 2076 ft 6 kts
2026-05-06 17:05 36.08531 -115.13796 2075 ft 0 kts 359°